Location: Gälforsberget
(66.6500°N, 22.4167°E)
Time: 01:33:28
(UTC+00:00)

SPOT 3 Rocket - Pass Details

Date: 11 April 2026
Orbit: 774 x 791 km, 98.5° (Epoch: 20 May)

Event Time Altitude Azimuth Distance (km) Brightness Sun altitude
Exits shadow 19:21:40 - 163° (SSE) 2,826 5.9 -7.4°
Reaches altitude 10° 19:22:52 10° 165° (SSE) 2,356 5.5 -7.5°
Maximum altitude 19:28:04 75° 251° (WSW) 822 3.8 -7.9°
Drops below altitude 10° 19:33:18 10° 337° (NNW) 2,359 7.3 -8.2°
Sets 19:35:38 0° 339° (NNW) 3,289 8.2 -8.4°
